| time (UTC) | temp F | wind direction | speed knots | gust knots | rain 1hr in | rain 24hr in | rain mn in | humidity % | barometer mb |
| 20260507030100 | 64 | 133 | 0.0 | 2.6 | 0.00 | 0.04 | 0.04 | 90 | 1008.8 |
| 20260507024604 | 64 | 226 | 0.0 | 2.6 | 0.00 | 0.04 | 0.04 | 90 | 1008.9 |
| 20260507023041 | 63 | 226 | 0.0 | 0.9 | 0.00 | 0.04 | 0.04 | 90 | 1008.8 |
| 20260507021551 | 63 | 0 | 0.0 | 0.9 | 0.00 | 0.04 | 0.04 | 90 | 1009.0 |
| 20260507020054 | 63 | 0 | 0.0 | 0.9 | 0.00 | 0.04 | 0.04 | 90 | 1009.2 |
| 20260507014551 | 63 | 0 | 0.0 | 0.9 | 0.00 | 0.04 | 0.04 | 91 | 1009.7 |
| 20260507013042 | 63 | 0 | 0.0 | 0.9 | 0.00 | 0.04 | 0.04 | 90 | 1009.8 |
| 20260507011544 | 63 | 0 | 0.0 | 0.0 | 0.00 | 0.04 | 0.04 | 88 | 1009.5 |
| 20260507010046 | 64 | 0 | 0.0 | 0.9 | 0.00 | 0.04 | 0.04 | 86 | 1009.3 |
| 20260507004543 | 65 | 226 | 0.0 | 0.0 | 0.00 | 0.04 | 0.04 | 85 | 1009.4 |
| 20260507003043 | 65 | 226 | 0.0 | 1.7 | 0.00 | 0.04 | 0.04 | 85 | 1009.4 |
| 20260507001546 | 66 | 226 | 0.9 | 3.5 | 0.00 | 0.04 | 0.04 | 84 | 1009.4 |
| 20260507000045 | 66 | 169 | 1.7 | 6.1 | 0.00 | 0.04 | 0.04 | 83 | 1009.0 |
| 20260506234553 | 67 | 0 | 1.7 | 6.1 | 0.00 | 0.04 | 0.04 | 82 | 1008.9 |
| 20260506233049 | 67 | 161 | 1.7 | 8.7 | 0.00 | 0.04 | 0.04 | 82 | 1009.0 |
| 20260506231552 | 68 | 195 | 2.6 | 7.8 | 0.00 | 0.04 | 0.04 | 81 | 1009.0 |
| 20260506230040 | 68 | 228 | 3.5 | 8.7 | 0.00 | 0.04 | 0.04 | 81 | 1009.0 |
| 20260506224541 | 68 | 188 | 3.5 | 7.8 | 0.00 | 0.04 | 0.04 | 80 | 1008.9 |
| 20260506223044 | 69 | 169 | 2.6 | 7.8 | 0.00 | 0.04 | 0.04 | 80 | 1009.0 |
| 20260506221545 | 68 | 203 | 5.2 | 14.8 | 0.00 | 0.04 | 0.04 | 80 | 1008.8 |
| 20260506220043 | 69 | 188 | 4.3 | 13.0 | 0.00 | 0.04 | 0.04 | 80 | 1009.0 |
| 20260506214545 | 69 | 221 | 6.1 | 16.5 | 0.00 | 0.04 | 0.04 | 79 | 1008.8 |
| 20260506213040 | 69 | 190 | 6.1 | 13.9 | 0.00 | 0.04 | 0.04 | 79 | 1008.7 |
| 20260506211550 | 69 | 210 | 7.0 | 15.6 | 0.00 | 0.04 | 0.04 | 78 | 1008.6 |
| 20260506210045 | 69 | 127 | 7.8 | 24.3 | 0.00 | 0.04 | 0.04 | 79 | 1008.3 |
| 20260506204544 | 69 | 208 | 5.2 | 14.8 | 0.00 | 0.04 | 0.04 | 79 | 1008.3 |
| 20260506203042 | 69 | 188 | 7.0 | 18.2 | 0.00 | 0.04 | 0.04 | 79 | 1008.2 |
| 20260506201541 | 68 | 186 | 7.8 | 18.2 | 0.00 | 0.04 | 0.04 | 79 | 1008.0 |
| 20260506200046 | 68 | 219 | 7.0 | 16.5 | 0.00 | 0.04 | 0.04 | 79 | 1008.2 |
| 20260506194544 | 68 | 194 | 7.0 | 18.2 | 0.00 | 0.04 | 0.04 | 79 | 1008.5 |
| 20260506193044 | 68 | 137 | 7.8 | 17.4 | 0.00 | 0.04 | 0.04 | 79 | 1008.7 |
| 20260506191542 | 68 | 213 | 7.0 | 16.5 | 0.00 | 0.04 | 0.04 | 79 | 1008.5 |
| 20260506190042 | 68 | 211 | 8.7 | 16.5 | 0.00 | 0.04 | 0.04 | 78 | 1008.9 |
| 20260506184547 | 68 | 240 | 7.8 | 20.0 | 0.00 | 0.04 | 0.04 | 78 | 1008.9 |
| 20260506183048 | 68 | 185 | 10.4 | 20.9 | 0.00 | 0.04 | 0.04 | 79 | 1009.3 |
| 20260506181543 | 67 | 213 | 7.8 | 22.6 | 0.00 | 0.04 | 0.04 | 82 | 1009.4 |
| 20260506180046 | 66 | 211 | 7.0 | 22.6 | 0.00 | 0.04 | 0.04 | 82 | 1009.4 |
| 20260506174542 | 66 | 206 | 7.8 | 14.8 | 0.00 | 0.04 | 0.04 | 82 | 1009.7 |
| 20260506173113 | 66 | 161 | 7.0 | 17.4 | 0.00 | 0.04 | 0.04 | 84 | 1009.5 |
| 20260506171539 | 65 | 185 | 6.1 | 19.1 | 0.00 | 0.04 | 0.04 | 86 | 1009.5 |
| 20260506170046 | 65 | 214 | 6.1 | 14.8 | 0.01 | 0.04 | 0.04 | 88 | 1009.4 |
| 20260506164548 | 63 | 222 | 7.0 | 14.8 | 0.01 | 0.04 | 0.04 | 88 | 1009.6 |
| 20260506163043 | 64 | 188 | 4.3 | 12.2 | 0.03 | 0.04 | 0.04 | 89 | 1010.0 |
| 20260506161542 | 63 | 182 | 1.7 | 8.7 | 0.04 | 0.04 | 0.04 | 90 | 1010.1 |
| 20260506160049 | 63 | 200 | 2.6 | 12.2 | 0.03 | 0.03 | 0.03 | 89 | 1010.3 |
| 20260506154545 | 63 | 182 | 2.6 | 13.9 | 0.03 | 0.03 | 0.03 | 88 | 1010.9 |
| 20260506153047 | 64 | 207 | 6.1 | 12.2 | 0.01 | 0.01 | 0.01 | 85 | 1011.2 |
| 20260506151545 | 65 | 123 | 5.2 | 13.9 | 0.00 | 0.00 | 0.00 | 81 | 1011.1 |
| 20260506150044 | 65 | 205 | 4.3 | 13.0 | 0.00 | 0.00 | 0.00 | 79 | 1011.0 |
| 20260506144544 | 66 | 147 | 7.0 | 13.9 | 0.00 | 0.00 | 0.00 | 75 | 1011.1 |
| 20260506143037 | 68 | 182 | 6.1 | 19.1 | 0.00 | 0.00 | 0.00 | 70 | 1011.1 |
| 20260506141543 | 69 | 184 | 8.7 | 18.2 | 0.00 | 0.00 | 0.00 | 68 | 1011.1 |
| 20260506140043 | 68 | 171 | 7.0 | 19.1 | 0.00 | 0.00 | 0.00 | 67 | 1011.0 |
| 20260506134542 | 68 | 168 | 6.1 | 16.5 | 0.00 | 0.00 | 0.00 | 68 | 1010.9 |
| 20260506133041 | 68 | 215 | 6.1 | 17.4 | 0.00 | 0.00 | 0.00 | 69 | 1010.7 |
| 20260506131548 | 67 | 163 | 4.3 | 17.4 | 0.00 | 0.00 | 0.00 | 69 | 1010.8 |
| 20260506130052 | 67 | 183 | 5.2 | 13.9 | 0.00 | 0.00 | 0.00 | 69 | 1010.7 |
| 20260506124552 | 67 | 174 | 5.2 | 15.6 | 0.00 | 0.00 | 0.00 | 69 | 1010.9 |
| 20260506123043 | 67 | 208 | 5.2 | 11.3 | 0.00 | 0.00 | 0.00 | 71 | 1011.0 |
| 20260506121542 | 67 | 207 | 5.2 | 13.9 | 0.00 | 0.00 | 0.00 | 71 | 1011.1 |
| 20260506120040 | 66 | 183 | 7.0 | 16.5 | 0.00 | 0.00 | 0.00 | 72 | 1011.2 |
| 20260506114546 | 65 | 193 | 3.5 | 13.9 | 0.00 | 0.00 | 0.00 | 74 | 1011.0 |
| 20260506113052 | 64 | 156 | 4.3 | 10.4 | 0.00 | 0.00 | 0.00 | 75 | 1010.8 |
| 20260506111544 | 64 | 215 | 5.2 | 13.9 | 0.00 | 0.00 | 0.00 | 75 | 1010.8 |
| 20260506110051 | 64 | 203 | 3.5 | 8.7 | 0.00 | 0.00 | 0.00 | 77 | 1010.7 |
| 20260506104548 | 63 | 171 | 5.2 | 13.0 | 0.00 | 0.00 | 0.00 | 78 | 1010.8 |
| 20260506103047 | 63 | 95 | 2.6 | 11.3 | 0.00 | 0.00 | 0.00 | 79 | 1010.7 |
| 20260506101555 | 63 | 237 | 3.5 | 10.4 | 0.00 | 0.00 | 0.00 | 79 | 1011.0 |
| 20260506100101 | 63 | 213 | 4.3 | 13.9 | 0.00 | 0.00 | 0.00 | 79 | 1010.9 |
| 20260506094543 | 63 | 207 | 5.2 | 12.2 | 0.00 | 0.00 | 0.00 | 79 | 1010.8 |
| 20260506093046 | 63 | 164 | 5.2 | 15.6 | 0.00 | 0.00 | 0.00 | 78 | 1010.9 |
| 20260506091540 | 64 | 170 | 4.3 | 13.0 | 0.00 | 0.00 | 0.00 | 78 | 1010.7 |
| 20260506090045 | 64 | 207 | 3.5 | 9.6 | 0.00 | 0.00 | 0.00 | 78 | 1010.7 |
| 20260506084605 | 64 | 195 | 4.3 | 15.6 | 0.00 | 0.00 | 0.00 | 78 | 1010.7 |
| 20260506083044 | 64 | 218 | 4.3 | 12.2 | 0.00 | 0.00 | 0.00 | 78 | 1010.5 |
| 20260506081550 | 64 | 221 | 4.3 | 13.0 | 0.00 | 0.00 | 0.00 | 78 | 1010.8 |
| 20260506073048 | 65 | 165 | 4.3 | 10.4 | 0.00 | 0.00 | 0.00 | 77 | 1010.9 |
| 20260506071545 | 65 | 179 | 5.2 | 11.3 | 0.00 | 0.00 | 0.00 | 77 | 1011.1 |
| 20260506061539 | 66 | 200 | 4.3 | 14.8 | 0.00 | 0.00 | 0.00 | 77 | 1011.0 |
| 20260506044618 | 68 | 197 | 4.3 | 13.0 | 0.00 | 0.00 | 0.00 | 75 | 1011.3 |
| 20260506043046 | 68 | 232 | 5.2 | 11.3 | 0.00 | 0.00 | 0.00 | 75 | 1011.5 |
| 20260506041553 | 68 | 159 | 4.3 | 13.0 | 0.00 | 0.00 | 0.00 | 75 | 1011.7 |
| 20260506040043 | 68 | 175 | 3.5 | 9.6 | 0.00 | 0.00 | 0.00 | 75 | 1011.5 |
| 20260506034605 | 68 | 210 | 3.5 | 9.6 | 0.00 | 0.00 | 0.00 | 74 | 1011.2 |
| 20260506033039 | 68 | 190 | 3.5 | 9.6 | 0.00 | 0.00 | 0.00 | 74 | 1011.2 |
| 20260506031540 | 68 | 205 | 1.7 | 6.1 | 0.00 | 0.00 | 0.00 | 72 | 1011.3 |